Andrews, NC

7:46 AM EDT on April 23, 2017 (GMT -0400)
Andrews

Weather History for KRHP - January, 2013

Change the Weather History Date:

Friday, January 25, 2013

  Actual Average (KMMI) Record (KMMI)
Temperature  
Mean Temperature 26 °F -  
Max Temperature 33 °F 48 °F 64 °F (2017)
Min Temperature 21 °F 29 °F 17 °F (2014)
Degree Days  
Heating Degree Days 38    
Moisture  
Dew Point 26 °F    
Average Humidity 88    
Maximum Humidity 100    
Minimum Humidity 66    
Precipitation  
Precipitation 0.59 in - - ()
Sea Level Pressure  
Sea Level Pressure 30.21 in    
Wind  
Wind Speed 0 mph (East)    
Max Wind Speed 4 mph    
Max Gust Speed -    
Visibility 5 miles    
Events Rain , Snow    
Averages and records for this station are not official NWS values.
T = Trace of Precipitation, MM = Missing Value Source: NWS Daily Summary

Daily Weather History Graph

Daily Weather History Graph

Search for Another Location

Airport or City:

Trip Planner

Search our weather history database for the weather conditions in past years. The results will help you decide how hot, cold, wet, or windy it might be!

Date:

Astronomy

Jan. 25, 2013 Rise Set
Actual Time 7:39 AM EST 5:57 PM EST
Civil Twilight 7:12 AM EST 6:24 PM EST
Nautical Twilight 6:41 AM EST 6:54 PM EST
Astronomical Twilight 6:11 AM EST 7:24 PM EST
Moon 4:53 PM EST (1/25) 6:17 AM EST (1/25)
Length of Visible Light 11h 11m
Length of Day
10h 17m
Waxing Gibbous, 98% of the Moon is Illuminated
Jan 25
Waxing Gibbous
Jan 26
Full
Feb 3
Last Quarter
Feb 10
New
Feb 17
First Quarter

Hourly Weather History & Observations

Time (EST) Temp. Windchill Dew Point Humidity Pressure Visibility Wind Dir Wind Speed Gust Speed Precip Events Conditions
12:15 AM 24.3 °F - 16.7 °F 73% 30.34 in 10.0 mi Calm Calm - N/A   Clear
12:35 AM 21.9 °F - 17.6 °F 83% 30.33 in 10.0 mi Calm Calm - N/A   Clear
12:55 AM 22.6 °F - 16.5 °F 77% 30.33 in 10.0 mi Calm Calm - N/A   Clear
1:15 AM 22.5 °F - 18.3 °F 84% 30.33 in 10.0 mi Calm Calm - N/A   Scattered Clouds
1:35 AM 22.8 °F - 18.7 °F 84% 30.33 in 10.0 mi Calm Calm - N/A   Scattered Clouds
1:55 AM 22.6 °F - 18.0 °F 82% 30.34 in 10.0 mi Calm Calm - N/A   Scattered Clouds
2:15 AM 24.4 °F - 18.7 °F 79% 30.34 in 10.0 mi Calm Calm - N/A   Overcast
2:35 AM 25.2 °F - 18.7 °F 76% 30.33 in 10.0 mi Calm Calm - N/A   Overcast
2:55 AM 25.7 °F - 18.7 °F 75% 30.33 in 10.0 mi Calm Calm - N/A   Overcast
3:15 AM 26.2 °F - 19.2 °F 75% 30.33 in 10.0 mi Calm Calm - N/A   Overcast
3:35 AM 26.8 °F - 19.8 °F 75% 30.33 in 10.0 mi Calm Calm - N/A   Overcast
3:55 AM 27.1 °F - 19.0 °F 72% 30.31 in 10.0 mi Calm Calm - N/A   Overcast
4:15 AM 27.3 °F - 17.8 °F 67% 30.29 in 10.0 mi Calm Calm - N/A   Overcast
4:35 AM 27.9 °F - 19.0 °F 69% 30.29 in 10.0 mi Calm Calm - N/A   Overcast
4:55 AM 28.0 °F - 18.0 °F 66% 30.29 in 10.0 mi Calm Calm - N/A   Overcast
5:15 AM 28.4 °F 24.6 °F 20.7 °F 73% 30.27 in 10.0 mi ENE 3.5 mph - N/A   Overcast
5:35 AM 29.1 °F - 19.8 °F 68% 30.27 in 10.0 mi Calm Calm - N/A   Overcast
5:55 AM 29.1 °F - 20.1 °F 69% 30.28 in 10.0 mi Calm Calm - N/A   Overcast
6:15 AM 29.3 °F - 21.4 °F 72% 30.27 in 5.0 mi Calm Calm - N/A   Overcast
6:35 AM 29.3 °F - 20.3 °F 69% 30.28 in 10.0 mi Calm Calm - N/A   Overcast
7:15 AM 29.3 °F - 22.1 °F 75% 30.28 in 5.0 mi Calm Calm - 0.01 in   Overcast
7:35 AM 29.3 °F - 21.2 °F 72% 30.27 in 10.0 mi Calm Calm - 0.01 in   Overcast
7:55 AM 29.3 °F - 22.8 °F 77% 30.28 in 5.0 mi Calm Calm - 0.01 in   Overcast
8:35 AM 28.9 °F - 24.4 °F 83% 30.27 in 4.0 mi Calm Calm - 0.03 in   Overcast
8:55 AM 28.9 °F - 24.6 °F 84% 30.28 in 10.0 mi Calm Calm - 0.03 in   Overcast
9:15 AM 29.1 °F - 25.2 °F 85% 30.26 in 10.0 mi Calm Calm - N/A   Overcast
9:35 AM 28.9 °F - 24.4 °F 83% 30.27 in 10.0 mi Calm Calm - N/A   Overcast
9:55 AM 29.1 °F - 25.3 °F 86% 30.25 in 10.0 mi Calm Calm - N/A   Overcast
10:15 AM 29.1 °F - 24.8 °F 84% 30.25 in 10.0 mi Calm Calm - N/A   Overcast
10:35 AM 29.5 °F - 25.9 °F 86% 30.24 in 10.0 mi Calm Calm - N/A   Overcast
10:55 AM 29.3 °F - 25.5 °F 86% 30.24 in 10.0 mi Calm Calm - N/A   Overcast
11:15 AM 29.7 °F - 25.7 °F 85% 30.24 in 10.0 mi Calm Calm - N/A   Overcast
11:35 AM 29.5 °F - 26.1 °F 87% 30.23 in 10.0 mi Calm Calm - N/A   Overcast
11:55 AM 29.8 °F - 27.1 °F 90% 30.21 in 5.0 mi Calm Calm - N/A   Overcast
12:15 PM 29.8 °F - 26.6 °F 88% 30.20 in 2.5 mi Calm Calm - 0.02 in Snow Light Snow
12:35 PM 29.8 °F 26.3 °F 27.7 °F 92% 30.19 in 2.0 mi East 3.5 mph - 0.07 in Snow Light Snow
12:55 PM 30.2 °F - 28.6 °F 94% 30.18 in 1.8 mi Calm Calm - 0.12 in Snow Light Snow
1:15 PM 30.6 °F - 28.9 °F 94% 30.18 in 2.0 mi Calm Calm - 0.03 in Snow Light Snow
1:35 PM 31.1 °F - 29.8 °F 95% 30.17 in 1.8 mi Calm Calm - 0.08 in Snow Light Snow
2:15 PM 31.6 °F - 30.7 °F 96% 30.15 in 1.0 mi Calm Calm - 0.03 in Snow Light Snow
2:35 PM 32.0 °F - 31.1 °F 96% 30.14 in 1.0 mi Calm Calm - 0.05 in   Overcast
2:55 PM 32.0 °F - 31.6 °F 99% 30.13 in 1.0 mi Calm Calm - 0.06 in   Overcast
3:15 PM 32.0 °F - 31.6 °F 99% 30.12 in 0.8 mi Calm Calm - 0.03 in Snow Light Snow
3:35 PM 32.0 °F - 31.8 °F 99% 30.11 in 1.0 mi Calm Calm - 0.06 in   Overcast
3:55 PM 32.0 °F - 32.0 °F 100% 30.11 in 1.0 mi Calm Calm - 0.08 in   Overcast
4:15 PM 32.2 °F - 32.0 °F 99% 30.12 in 1.0 mi Calm Calm - 0.02 in Rain Light Rain
4:35 PM 32.0 °F - 32.0 °F 100% 30.12 in 0.8 mi Calm Calm - 0.05 in   Overcast
4:55 PM 32.2 °F - 32.0 °F 99% 30.12 in 1.0 mi Calm Calm - 0.08 in   Overcast
5:15 PM 32.2 °F - 32.0 °F 99% 30.12 in 0.8 mi Calm Calm - 0.01 in Rain Rain
5:35 PM 32.4 °F - 32.2 °F 99% 30.13 in 1.5 mi Calm Calm - 0.03 in Rain Rain
5:55 PM 32.2 °F - 32.0 °F 99% 30.13 in 1.5 mi Calm Calm - 0.04 in   Heavy Drizzle
6:15 PM 32.4 °F - 32.2 °F 99% 30.13 in 1.2 mi Calm Calm - 0.02 in Rain Light Rain
6:35 PM 32.4 °F - 32.2 °F 99% 30.13 in 1.5 mi Calm Calm - 0.03 in   Heavy Drizzle
6:55 PM 32.2 °F - 32.0 °F 99% 30.13 in 1.0 mi Calm Calm - 0.04 in   Heavy Drizzle
7:15 PM 32.2 °F - 32.2 °F 100% 30.13 in 1.0 mi Calm Calm - 0.02 in Rain Rain
7:35 PM 32.4 °F - 32.4 °F 100% 30.13 in 1.8 mi Calm Calm - 0.03 in Rain Heavy Rain
7:55 PM 32.4 °F - 32.2 °F 99% 30.13 in 1.2 mi Calm Calm - 0.03 in   Drizzle
8:15 PM 32.7 °F - 32.5 °F 99% 30.13 in 1.2 mi Calm Calm - 0.01 in Rain Light Rain
8:35 PM 32.5 °F - 32.4 °F 99% 30.14 in 1.5 mi Calm Calm - 0.01 in   Drizzle
8:55 PM 32.4 °F - 32.2 °F 99% 30.14 in 1.5 mi Calm Calm - 0.01 in   Drizzle
9:15 PM 32.5 °F - 32.4 °F 99% 30.13 in 1.5 mi Calm Calm - 0.01 in   Drizzle
9:35 PM 32.9 °F - 32.7 °F 99% 30.13 in 1.8 mi Calm Calm - 0.01 in   Overcast
9:55 PM 32.4 °F - 32.4 °F 100% 30.13 in 1.8 mi Calm Calm - 0.01 in   Overcast
10:15 PM 32.9 °F - 32.5 °F 99% 30.14 in 5.0 mi Calm Calm - N/A   Overcast
10:35 PM 32.5 °F - 32.4 °F 99% 30.13 in 2.5 mi Calm Calm - N/A   Overcast
10:55 PM 32.5 °F - 32.4 °F 99% 30.13 in 3.0 mi Calm Calm - N/A   Overcast
11:15 PM 32.9 °F - 32.7 °F 99% 30.13 in 3.0 mi Calm Calm - N/A   Overcast
11:35 PM 32.9 °F - 32.9 °F 100% 30.13 in 3.0 mi Calm Calm - N/A   Overcast
11:55 PM 33.3 °F - 32.9 °F 99% 30.14 in 5.0 mi Calm Calm - N/A   Overcast